Regional Weather Roundup
Issued by NWS

Home | Current Version | Previous Version | Graphics & Text | Print | Product List | Glossary On
Versions: 1 2 3 4 5 6 7 8 9 10 11 12 13 14 15 16 17 18 19 20 21 22 23 24 25 26 27 28 29 30 31 32 33 34 35 36 37 38 39 40 41 42 43 44 45 46 47 48 49 50
000
ASUS43 KDMX 261607
RWRIA

WEATHER ROUNDUP FOR IOWA
NATIONAL WEATHER SERVICE DES MOINES IA
1100 AM CDT SUN APR 26 2015

NOTE: "FAIR" INDICATES FEW OR NO CLOUDS BELOW 12,000 FEET WITH NO
SIGNIFICANT WEATHER AND/OR OBSTRUCTIONS TO VISIBILITY.

* - THESE STATIONS ARE NOT NWS STATIONS...THUS NOT UNDER NWS
QUALITY CONTROL.  THEY ALSO DO NOT REPORT WEATHER SUCH
AS PRECIPITATION OR FOG.

IAZ001>003-012>014-020>022-031>034-043>046-261700-
   NORTHWEST IOWA

CITY           SKY/WX    TMP DP  RH WIND       PRES   REMARKS
CARROLL *      SUNNY     54  36  50 E6G14     30.07S
CHEROKEE *     SUNNY     55  34  44 E6        30.08S
DENISON *      SUNNY     52  36  54 E12       30.06S
LE MARS *      SUNNY     57  36  44 NE8G15    30.08S
ORANGE CITY *  SUNNY     55  34  44 E8        30.08R
SHELDON *      SUNNY     57  32  38 NE7       30.07R
SIOUX CITY     SUNNY     56  35  45 E12       30.08S
SPENCER        SUNNY     58  32  37 NE7       30.08R
STORM LAKE *   SUNNY     54  34  47 NE7G14    30.08S
$$

IAZ055>058-069>071-079>083-090>094-261700-
   SOUTHWEST IOWA

CITY           SKY/WX    TMP DP  RH WIND       PRES   REMARKS
ATLANTIC *     SUNNY     52  39  62 NE8G15    30.06S
AUDUBON *      SUNNY     54  37  54 E9        30.07S
CLARINDA *     SUNNY     54  39  58 E13       30.05S
COUNCIL BLFS * PTSUNNY   52  43  71 E13       30.06R
CRESTON *      SUNNY     52  37  58 NE12G18   30.04S
HARLAN  *      SUNNY     52  43  71 E10       30.10R
LAMONI         SUNNY     54  36  50 E10G22    30.02R
RED OAK *      MOSUNNY   54  41  62 E14       30.05R
SHENANDOAH *   SUNNY     54  39  58 E13       30.05R
$$

IAZ047>049-059>061-072>074-084-261700-
   CENTRAL IOWA

CITY           SKY/WX    TMP DP  RH WIND       PRES   REMARKS
AMES           SUNNY     54  34  46 NE9       30.07R
ANKENY *       SUNNY     54  34  47 NE7G14    30.06S
CHARITON *     SUNNY     52  36  54 NE8G15    30.04R
DES MOINES     MOSUNNY   56  33  42 NE12      30.07R
GRINNELL*      SUNNY     52  27  37 NE9       30.06R
KNOXVILLE *    SUNNY     52  32  46 N8G14     30.04R
MARSHALLTOWN   SUNNY     54  27  35 NE10      30.06R
PELLA *        SUNNY     55  34  44 N8        30.06S
PERRY *          N/A     54  34  47 E7        30.07R
$$

IAZ004>006-015-016-023>025-035-036-261700-
   NORTH CENTRAL IOWA

CITY           SKY/WX    TMP DP  RH WIND       PRES   REMARKS
ALGONA *       SUNNY     54  37  54 CALM      30.09R
CLARION *      SUNNY     54  23  30 MISG      30.08R
ESTHERVILLE    SUNNY     55  34  45 N6        30.08R
FORT DODGE *   SUNNY     54  36  50 E5        30.09R
MASON CITY     SUNNY     52  25  35 SE5       30.10R
FOREST CITY *  SUNNY     52  23  32 NE5       30.09R
IOWA FALLS *     N/A     52  25  35 N3        30.09R
$$

IAZ007>011-017>019-026>030-037>042-050>054-066-261700-
   NORTHEAST IOWA

CITY           SKY/WX    TMP DP  RH WIND       PRES   REMARKS
CEDAR RAPIDS   SUNNY     51  31  46 NE10      30.05R
CHARLES CITY * SUNNY     52  25  35 CALM      30.10R
CLINTON *      SUNNY     50  30  46 E10       30.08S
DECORAH *      SUNNY     50  27  40 N5        30.08S
DUBUQUE        SUNNY     50  29  44 NE9       30.07R
MONTICELLO *   SUNNY     50  34  53 NE8G14    30.06S
OELWEIN *      SUNNY     50  32  50 NE9G16    30.08R
WATERLOO       SUNNY     54  29  38 NE10      30.07R
$$

IAZ064-065-067-068-078-261700-
   EAST CENTRAL IOWA

CITY           SKY/WX    TMP DP  RH WIND       PRES   REMARKS
DAVENPORT      SUNNY     51  33  50 E14       30.05S
IOWA CITY      SUNNY     52  35  52 NE5       30.07R
MT. PLEASANT * SUNNY     52  36  54 N8        30.04R
MUSCATINE *    SUNNY     52  34  50 NE7G13    30.06S
QUAD CITIES    SUNNY     52  31  44 E13       30.05R
$$

IAZ062-063-075>077-085>089-095>099-261700-
   SOUTHEAST IOWA

CITY           SKY/WX    TMP DP  RH WIND       PRES   REMARKS
BURLINGTON     SUNNY     51  35  54 N12       30.03R
FAIRFIELD *    SUNNY     52  36  54 NE9       30.04S
FORT MADISON * SUNNY     54  36  50 NE9       30.03R
KEOKUK *       SUNNY     54  36  50 NE9       30.01S
OSKALOOSA *      N/A     52  36  54 NE6       30.05R
CENTERVILLE *  SUNNY     54  36  50 NE10      30.04R
OTTUMWA        SUNNY     53  35  50 NE8       30.04R
WASHINGTON *   SUNNY     50  39  66 NE9G16    30.05S
$$

ABBREVIATIONS USED IN REMARKS
   TC - TEMPERATURES IN CELSIUS
  WCI - WIND CHILL INDEX
   HX - HEAT INDEX
  VSB - VISIBILITY
$$



USA.gov is the U.S. government's official web portal to all federal, state and local government web resources and services.